Tracking 30922 objects as of 2-Jul-2025
HD Live streaming from Space Station
objects crossing your sky now

BREEZE-M DEB

Track BREEZE-M DEB now!
10-day predictions


NORAD ID: 38601
Int'l Code: 2008-011AY
Perigee: 295.2 km
Apogee: 15,330.4 km
Inclination: 48.1 °
Period: 280.2 minutes
Semi major axis: 14183 km
RCS: 0.2708 m2 (medium)
Launch date: March 14, 2008
Source: Commonwealth of Independent States (former USSR) (CIS)
Launch site: TYURATAM MISSILE AND SPACE COMPLEX (TTMTR)

Note: This is SATELLITE DEBRIS
Your satellite tracking list
Your tracking list is empty




NASA's NSSDC Master Catalog

Two Line Element Set (TLE):
1 38601U 08011AY  25177.68971598  .00012615  00000-0  18904-2 0  9992
2 38601  48.0719 327.9737 5300112 268.3188  33.3412  5.13942665218575
Source of the keplerian elements: AFSPC